Location: Marcé
(47.5801°N, 0.3280°W)
Time: 16:05:37
(UTC+01:00)

Tiros 1 despin weight - Pass Details

Date: 11 December 2021
Orbit: 592 x 641 km, 48.2° (Epoch: 20 January)

Event Time Altitude Azimuth Distance (km) Brightness Sun altitude
Rises 16:32:38 0° 285° (WNW) 2,833 ? 4.1°
Reaches altitude 10° 16:35:01 10° 278° (W) 1,926 ? 3.8°
Maximum altitude 16:39:08 40° 209° (SSW) 878 ? 3.3°
Drops below altitude 10° 16:43:14 10° 140° (SE) 1,916 ? 2.7°
Sets 16:45:36 0° 133° (SE) 2,817 ? 2.4°
